Location: Carrières
(48.9495°N, 2.0407°E)
Time: 00:18:53
(UTC+00:00)

Lacrosse 4 Rocket - Pass Details

Date: 28 January 2023
Orbit: 535 x 608 km, 68.0° (Epoch: 21 March)

Event Time Altitude Azimuth Distance (km) Brightness Sun altitude
Rises 17:12:14 0° 282° (WNW) 2,879 6.0 -5.3°
Reaches altitude 10° 17:16:31 10° 322° (NW) 1,974 4.4 -6.0°
Maximum altitude 17:17:30 11° 335° (NNW) 1,932 4.2 -6.1°
Drops below altitude 10° 17:18:29 10° 348° (NNW) 1,971 4.1 -6.3°
Enters shadow 17:22:42 - 27° (NNE) 2,848 4.5 -6.9°
